"Period start","avg(HW err(1)/warn(2) (#))","avg(Visibility (m))","avg(Weather code (#))","avg(Precip intensity (mm/h))","min(HW err(1)/warn(2) (#))","max(HW err(1)/warn(2) (#))","std(HW err(1)/warn(2) (#))","med(HW err(1)/warn(2) (#))","min(Visibility (m))","max(Visibility (m))","std(Visibility (m))","med(Visibility (m))","min(Weather code (#))","max(Weather code (#))","std(Weather code (#))","med(Weather code (#))","min(Precip intensity (mm/h))","max(Precip intensity (mm/h))","std(Precip intensity (mm/h))","med(Precip intensity (mm/h))"
2016-08-04 00:00:00,1,49590,0,0.00,0,2,1,2,47199,50000,839,50000,0,0,0,0,0.00,0.00,0.00,0.00
2016-08-04 00:10:00,0,49987,0,0.00,0,2,1,0,49872,50000,38,50000,0,0,0,0,0.00,0.00,0.00,0.00
2016-08-04 00:20:00,0,50000,0,0.00,0,2,1,0,50000,50000,0,50000,0,0,0,0,0.00,0.00,0.00,0.00
2016-08-04 00:30:00,2,49974,0,0.00,2,2,0,2,49742,50000,77,50000,0,0,0,0,0.00,0.00,0.00,0.00
2016-08-04 00:40:00,2,50000,0,0.00,0,2,1,2,50000,50000,0,50000,0,0,0,0,0.00,0.00,0.00,0.00
2016-08-04 00:50:00,2,50000,0,0.00,0,2,1,2,50000,50000,0,50000,0,0,0,0,0.00,0.00,0.00,0.00
2016-08-04 01:00:00,1,50000,0,0.00,0,2,1,0,50000,50000,0,50000,0,0,0,0,0.00,0.00,0.00,0.00
2016-08-04 01:10:00,1,49338,0,0.00,0,2,1,2,46329,50000,1295,50000,0,0,0,0,0.00,0.00,0.00,0.00
2016-08-04 01:20:00,2,49796,0,0.00,2,2,0,2,48561,50000,449,50000,0,0,0,0,0.00,0.00,0.00,0.00
2016-08-04 01:30:00,1,50000,0,0.00,0,2,1,2,50000,50000,0,50000,0,0,0,0,0.00,0.00,0.00,0.00
2016-08-04 01:40:00,0,50000,0,0.00,0,0,0,0,50000,50000,0,50000,0,0,0,0,0.00,0.00,0.00,0.00
2016-08-04 01:50:00,0,50000,0,0.00,0,0,0,0,50000,50000,0,50000,0,0,0,0,0.00,0.00,0.00,0.00
2016-08-04 02:00:00,1,50000,0,0.00,0,2,1,2,50000,50000,0,50000,0,0,0,0,0.00,0.00,0.00,0.00
2016-08-04 02:10:00,2,47856,0,0.00,2,2,0,2,38881,50000,3503,50000,0,0,0,0,0.00,0.00,0.00,0.00
2016-08-04 02:20:00,2,49888,0,0.00,2,2,0,2,49110,50000,268,50000,0,0,0,0,0.00,0.00,0.00,0.00
2016-08-04 02:30:00,2,47548,0,0.00,2,2,0,2,40616,50000,3160,49170,0,0,0,0,0.00,0.00,0.00,0.00
2016-08-04 02:40:00,2,47415,0,0.00,2,2,0,2,39057,50000,3520,49638,0,0,0,0,0.00,0.00,0.00,0.00
2016-08-04 02:50:00,1,49732,0,0.00,0,2,1,1,47948,50000,623,50000,0,0,0,0,0.00,0.00,0.00,0.00
2016-08-04 03:00:00,1,49837,0,0.00,0,2,1,0,48374,50000,488,50000,0,0,0,0,0.00,0.00,0.00,0.00
2016-08-04 03:10:00,2,34158,0,0.00,2,2,0,2,18118,50000,12478,37274,0,0,0,0,0.00,0.00,0.00,0.00
2016-08-04 03:20:00,2,24765,8,0.10,2,2,0,2,13137,36821,9866,24624,0,41,16,0,0.00,0.85,0.25,0.00
2016-08-04 03:30:00,2,24493,55,1.13,2,2,0,2,13936,36734,7823,22954,51,61,5,52,0.45,1.85,0.45,1.15
2016-08-04 03:40:00,2,19394,59,1.56,2,2,0,2,14549,22927,2935,20250,52,61,4,61,0.65,3.20,0.85,1.27
2016-08-04 03:50:00,2,15851,61,3.55,2,2,0,2,12050,19745,2829,14814,61,61,0,61,2.25,5.55,1.09,3.35
2016-08-04 04:00:00,2,13392,61,4.10,2,2,0,2,10490,17490,2183,13238,61,61,0,61,1.25,9.60,2.36,3.38
2016-08-04 04:10:00,2,10336,55,2.08,2,2,0,2,7957,18173,2933,9118,52,61,4,52,0.75,4.35,1.09,1.73
2016-08-04 04:20:00,2,6643,58,9.08,2,2,0,2,5708,7768,585,6644,52,62,5,61,1.95,16.55,4.18,9.12
2016-08-04 04:30:00,2,7835,61,5.59,2,2,0,2,6611,9440,939,7906,61,62,0,61,1.40,12.80,3.59,3.70
2016-08-04 04:40:00,2,8527,57,1.20,2,2,0,2,6056,12258,2035,8399,52,61,4,61,0.35,2.00,0.58,1.28
2016-08-04 04:50:00,2,9015,59,2.60,2,2,0,2,7720,10293,738,9132,52,61,4,61,1.00,5.55,1.25,2.52
2016-08-04 05:00:00,2,8540,60,1.36,2,2,0,2,7196,10837,1049,8419,51,61,3,61,0.10,5.45,1.62,0.70
2016-08-04 05:10:00,2,8128,58,1.90,2,2,0,2,6653,10583,1218,7820,51,61,5,61,0.40,3.60,0.96,1.90
2016-08-04 05:20:00,2,13974,38,0.27,2,2,0,2,6854,24595,6370,11728,10,61,23,51,0.00,1.55,0.46,0.05
"Period start","avg(HW err(1)/warn(2) (#))","avg(Visibility (m))","avg(Weather code (#))","avg(Precip intensity (mm/h))","min(HW err(1)/warn(2) (#))","max(HW err(1)/warn(2) (#))","std(HW err(1)/warn(2) (#))","med(HW err(1)/warn(2) (#))","min(Visibility (m))","max(Visibility (m))","std(Visibility (m))","med(Visibility (m))","min(Weather code (#))","max(Weather code (#))","std(Weather code (#))","med(Weather code (#))","min(Precip intensity (mm/h))","max(Precip intensity (mm/h))","std(Precip intensity (mm/h))","med(Precip intensity (mm/h))"
2016-08-04 05:30:00,2,10057,41,0.13,2,2,0,2,5242,29786,7347,6230,10,71,23,41,0.00,0.75,0.23,0.00
2016-08-04 05:40:00,2,31039,3,0.00,2,2,0,2,8961,49889,16102,36727,0,10,5,0,0.00,0.00,0.00,0.00
2016-08-04 05:50:00,2,39636,0,0.00,2,2,0,2,13421,50000,13788,46394,0,0,0,0,0.00,0.00,0.00,0.00
2016-08-04 06:00:00,2,39964,0,0.00,2,2,0,2,24077,49395,8361,41985,0,0,0,0,0.00,0.00,0.00,0.00
2016-08-04 06:10:00,2,17581,0,0.00,2,2,0,2,5152,50000,14729,10494,0,0,0,0,0.00,0.00,0.00,0.00
2016-08-04 06:20:00,2,47751,0,0.00,2,2,0,2,38904,50000,3463,49424,0,0,0,0,0.00,0.00,0.00,0.00
2016-08-04 06:30:00,2,48236,0,0.00,2,2,0,2,44062,50000,1976,48850,0,0,0,0,0.00,0.00,0.00,0.00
2016-08-04 06:40:00,2,49953,0,0.00,2,2,0,2,49530,50000,141,50000,0,0,0,0,0.00,0.00,0.00,0.00
2016-08-04 06:50:00,2,49993,0,0.00,2,2,0,2,49926,50000,22,50000,0,0,0,0,0.00,0.00,0.00,0.00
2016-08-04 07:00:00,2,49820,0,0.00,2,2,0,2,48401,50000,477,50000,0,0,0,0,0.00,0.00,0.00,0.00
2016-08-04 07:10:00,2,45419,0,0.00,2,2,0,2,36831,50000,4593,46085,0,0,0,0,0.00,0.00,0.00,0.00
2016-08-04 07:20:00,2,49462,0,0.00,2,2,0,2,44623,50000,1613,50000,0,0,0,0,0.00,0.00,0.00,0.00
2016-08-04 07:30:00,2,49334,0,0.00,2,2,0,2,47108,50000,1123,49971,0,0,0,0,0.00,0.00,0.00,0.00
2016-08-04 07:40:00,2,49543,0,0.00,2,2,0,2,47626,50000,894,50000,0,0,0,0,0.00,0.00,0.00,0.00
2016-08-04 07:50:00,2,50000,0,0.00,2,2,0,2,50000,50000,0,50000,0,0,0,0,0.00,0.00,0.00,0.00
2016-08-04 08:00:00,2,49957,0,0.00,2,2,0,2,49574,50000,128,50000,0,0,0,0,0.00,0.00,0.00,0.00
2016-08-04 08:10:00,2,49974,0,0.00,2,2,0,2,49736,50000,79,50000,0,0,0,0,0.00,0.00,0.00,0.00
2016-08-04 08:20:00,2,49827,0,0.00,2,2,0,2,48271,50000,519,50000,0,0,0,0,0.00,0.00,0.00,0.00
2016-08-04 08:30:00,2,49386,0,0.00,2,2,0,2,44538,50000,1629,50000,0,0,0,0,0.00,0.00,0.00,0.00
2016-08-04 08:40:00,2,49964,0,0.00,2,2,0,2,49645,50000,106,50000,0,0,0,0,0.00,0.00,0.00,0.00
2016-08-04 08:50:00,2,48022,0,0.00,2,2,0,2,43657,50000,2489,49726,0,0,0,0,0.00,0.00,0.00,0.00
2016-08-04 09:00:00,2,49741,0,0.00,2,2,0,2,47459,50000,761,50000,0,0,0,0,0.00,0.00,0.00,0.00
2016-08-04 09:10:00,2,50000,0,0.00,2,2,0,2,50000,50000,0,50000,0,0,0,0,0.00,0.00,0.00,0.00
2016-08-04 09:20:00,2,50000,0,0.00,2,2,0,2,50000,50000,0,50000,0,0,0,0,0.00,0.00,0.00,0.00
2016-08-04 09:30:00,2,50000,0,0.00,2,2,0,2,50000,50000,0,50000,0,0,0,0,0.00,0.00,0.00,0.00
2016-08-04 09:40:00,2,49702,0,0.00,2,2,0,2,47462,50000,758,50000,0,0,0,0,0.00,0.00,0.00,0.00
2016-08-04 09:50:00,2,49984,0,0.00,2,2,0,2,49841,50000,48,50000,0,0,0,0,0.00,0.00,0.00,0.00
2016-08-04 10:00:00,2,50000,0,0.00,2,2,0,2,50000,50000,0,50000,0,0,0,0,0.00,0.00,0.00,0.00
2016-08-04 10:10:00,2,49585,0,0.00,2,2,0,2,45848,50000,1246,50000,0,0,0,0,0.00,0.00,0.00,0.00
2016-08-04 10:20:00,2,50000,0,0.00,2,2,0,2,50000,50000,0,50000,0,0,0,0,0.00,0.00,0.00,0.00
2016-08-04 10:30:00,1,49778,0,0.00,0,2,1,2,47779,50000,666,50000,0,0,0,0,0.00,0.00,0.00,0.00
2016-08-04 10:40:00,0,49634,0,0.00,0,0,0,0,47992,50000,737,50000,0,0,0,0,0.00,0.00,0.00,0.00
2016-08-04 10:50:00,0,50000,0,0.00,0,0,0,0,50000,50000,0,50000,0,0,0,0,0.00,0.00,0.00,0.00
2016-08-04 11:00:00,0,50000,0,0.00,0,0,0,0,50000,50000,0,50000,0,0,0,0,0.00,0.00,0.00,0.00
2016-08-04 11:10:00,0,50000,0,0.00,0,0,0,0,50000,50000,0,50000,0,0,0,0,0.00,0.00,0.00,0.00
2016-08-04 11:20:00,0,48669,0,0.00,0,0,0,0,41692,50000,2763,50000,0,0,0,0,0.00,0.00,0.00,0.00
2016-08-04 11:30:00,0,50000,0,0.00,0,0,0,0,50000,50000,0,50000,0,0,0,0,0.00,0.00,0.00,0.00
2016-08-04 11:40:00,0,50000,0,0.00,0,0,0,0,50000,50000,0,50000,0,0,0,0,0.00,0.00,0.00,0.00
2016-08-04 11:50:00,0,50000,0,0.00,0,0,0,0,50000,50000,0,50000,0,0,0,0,0.00,0.00,0.00,0.00
2016-08-04 12:00:00,1,50000,0,0.00,0,2,1,2,50000,50000,0,50000,0,0,0,0,0.00,0.00,0.00,0.00
2016-08-04 12:10:00,2,50000,0,0.00,2,2,0,2,50000,50000,0,50000,0,0,0,0,0.00,0.00,0.00,0.00
2016-08-04 12:20:00,2,50000,0,0.00,2,2,0,2,50000,50000,0,50000,0,0,0,0,0.00,0.00,0.00,0.00
2016-08-04 12:30:00,2,50000,0,0.00,0,2,1,2,50000,50000,0,50000,0,0,0,0,0.00,0.00,0.00,0.00
2016-08-04 12:40:00,1,49997,0,0.00,0,2,1,2,49972,50000,8,50000,0,0,0,0,0.00,0.00,0.00,0.00
2016-08-04 12:50:00,0,50000,0,0.00,0,0,0,0,50000,50000,0,50000,0,0,0,0,0.00,0.00,0.00,0.00
2016-08-04 13:00:00,1,50000,0,0.00,0,2,1,2,50000,50000,0,50000,0,0,0,0,0.00,0.00,0.00,0.00
2016-08-04 13:10:00,2,50000,0,0.00,2,2,0,2,50000,50000,0,50000,0,0,0,0,0.00,0.00,0.00,0.00
2016-08-04 13:20:00,2,50000,0,0.00,2,2,0,2,50000,50000,0,50000,0,0,0,0,0.00,0.00,0.00,0.00
2016-08-04 13:30:00,2,50000,0,0.00,2,2,0,2,50000,50000,0,50000,0,0,0,0,0.00,0.00,0.00,0.00
2016-08-04 13:40:00,2,50000,0,0.00,2,2,0,2,50000,50000,0,50000,0,0,0,0,0.00,0.00,0.00,0.00
2016-08-04 13:50:00,2,50000,0,0.00,2,2,0,2,50000,50000,0,50000,0,0,0,0,0.00,0.00,0.00,0.00
2016-08-04 14:00:00,2,49999,0,0.00,2,2,0,2,49989,50000,3,50000,0,0,0,0,0.00,0.00,0.00,0.00
2016-08-04 14:10:00,2,50000,0,0.00,2,2,0,2,50000,50000,0,50000,0,0,0,0,0.00,0.00,0.00,0.00
2016-08-04 14:20:00,2,50000,0,0.00,2,2,0,2,50000,50000,0,50000,0,0,0,0,0.00,0.00,0.00,0.00
2016-08-04 14:30:00,2,50000,0,0.00,2,2,0,2,50000,50000,0,50000,0,0,0,0,0.00,0.00,0.00,0.00
2016-08-04 14:40:00,2,50000,0,0.00,2,2,0,2,50000,50000,0,50000,0,0,0,0,0.00,0.00,0.00,0.00
2016-08-04 14:50:00,2,50000,0,0.00,2,2,0,2,50000,50000,0,50000,0,0,0,0,0.00,0.00,0.00,0.00
2016-08-04 15:00:00,2,50000,0,0.00,2,2,0,2,50000,50000,0,50000,0,0,0,0,0.00,0.00,0.00,0.00
2016-08-04 15:10:00,2,50000,0,0.00,2,2,0,2,50000,50000,0,50000,0,0,0,0,0.00,0.00,0.00,0.00
2016-08-04 15:20:00,2,50000,0,0.00,2,2,0,2,50000,50000,0,50000,0,0,0,0,0.00,0.00,0.00,0.00
2016-08-04 15:30:00,2,50000,0,0.00,2,2,0,2,50000,50000,0,50000,0,0,0,0,0.00,0.00,0.00,0.00
2016-08-04 15:40:00,2,50000,0,0.00,2,2,0,2,50000,50000,0,50000,0,0,0,0,0.00,0.00,0.00,0.00
2016-08-04 15:50:00,2,50000,0,0.00,2,2,0,2,50000,50000,0,50000,0,0,0,0,0.00,0.00,0.00,0.00
2016-08-04 16:00:00,2,50000,0,0.00,2,2,0,2,50000,50000,0,50000,0,0,0,0,0.00,0.00,0.00,0.00
2016-08-04 16:10:00,2,50000,0,0.00,2,2,0,2,50000,50000,0,50000,0,0,0,0,0.00,0.00,0.00,0.00
2016-08-04 16:20:00,2,50000,0,0.00,2,2,0,2,50000,50000,0,50000,0,0,0,0,0.00,0.00,0.00,0.00
2016-08-04 16:30:00,2,50000,0,0.00,2,2,0,2,50000,50000,0,50000,0,0,0,0,0.00,0.00,0.00,0.00
2016-08-04 16:40:00,2,50000,0,0.00,2,2,0,2,50000,50000,0,50000,0,0,0,0,0.00,0.00,0.00,0.00
2016-08-04 16:50:00,2,50000,0,0.00,2,2,0,2,50000,50000,0,50000,0,0,0,0,0.00,0.00,0.00,0.00
2016-08-04 17:00:00,2,50000,0,0.00,2,2,0,2,50000,50000,0,50000,0,0,0,0,0.00,0.00,0.00,0.00
2016-08-04 17:10:00,2,50000,0,0.00,2,2,0,2,50000,50000,0,50000,0,0,0,0,0.00,0.00,0.00,0.00
2016-08-04 17:20:00,2,50000,0,0.00,2,2,0,2,50000,50000,0,50000,0,0,0,0,0.00,0.00,0.00,0.00
2016-08-04 17:30:00,2,50000,0,0.00,2,2,0,2,50000,50000,0,50000,0,0,0,0,0.00,0.00,0.00,0.00
2016-08-04 17:40:00,2,50000,0,0.00,2,2,0,2,50000,50000,0,50000,0,0,0,0,0.00,0.00,0.00,0.00
2016-08-04 17:50:00,2,50000,0,0.00,2,2,0,2,50000,50000,0,50000,0,0,0,0,0.00,0.00,0.00,0.00
2016-08-04 18:00:00,2,50000,0,0.00,2,2,0,2,50000,50000,0,50000,0,0,0,0,0.00,0.00,0.00,0.00
2016-08-04 18:10:00,2,50000,0,0.00,2,2,0,2,50000,50000,0,50000,0,0,0,0,0.00,0.00,0.00,0.00
2016-08-04 18:20:00,2,50000,0,0.00,2,2,0,2,50000,50000,0,50000,0,0,0,0,0.00,0.00,0.00,0.00
2016-08-04 18:30:00,2,50000,0,0.00,2,2,0,2,50000,50000,0,50000,0,0,0,0,0.00,0.00,0.00,0.00
2016-08-04 18:40:00,2,50000,0,0.00,2,2,0,2,50000,50000,0,50000,0,0,0,0,0.00,0.00,0.00,0.00
2016-08-04 18:50:00,2,49931,0,0.00,2,2,0,2,49313,50000,206,50000,0,0,0,0,0.00,0.00,0.00,0.00
2016-08-04 19:00:00,2,50000,0,0.00,2,2,0,2,50000,50000,0,50000,0,0,0,0,0.00,0.00,0.00,0.00
2016-08-04 19:10:00,2,50000,0,0.00,2,2,0,2,50000,50000,0,50000,0,0,0,0,0.00,0.00,0.00,0.00
2016-08-04 19:20:00,2,50000,0,0.00,2,2,0,2,50000,50000,0,50000,0,0,0,0,0.00,0.00,0.00,0.00
2016-08-04 19:30:00,2,50000,0,0.00,2,2,0,2,50000,50000,0,50000,0,0,0,0,0.00,0.00,0.00,0.00
2016-08-04 19:40:00,2,50000,0,0.00,2,2,0,2,50000,50000,0,50000,0,0,0,0,0.00,0.00,0.00,0.00
2016-08-04 19:50:00,2,49903,0,0.00,2,2,0,2,49028,50000,292,50000,0,0,0,0,0.00,0.00,0.00,0.00
2016-08-04 20:00:00,2,49654,0,0.00,2,2,0,2,48059,50000,699,50000,0,0,0,0,0.00,0.00,0.00,0.00
2016-08-04 20:10:00,2,49267,0,0.00,2,2,0,2,45884,50000,1329,50000,0,0,0,0,0.00,0.00,0.00,0.00
2016-08-04 20:20:00,2,49837,0,0.00,2,2,0,2,48374,50000,488,50000,0,0,0,0,0.00,0.00,0.00,0.00
2016-08-04 20:30:00,2,49992,0,0.00,2,2,0,2,49922,50000,23,50000,0,0,0,0,0.00,0.00,0.00,0.00
2016-08-04 20:40:00,2,49908,0,0.00,2,2,0,2,49076,50000,277,50000,0,0,0,0,0.00,0.00,0.00,0.00
2016-08-04 20:50:00,2,48662,0,0.00,2,2,0,2,43625,50000,2234,50000,0,0,0,0,0.00,0.00,0.00,0.00
2016-08-04 21:00:00,2,49578,0,0.00,0,2,1,2,47070,50000,884,50000,0,0,0,0,0.00,0.00,0.00,0.00
2016-08-04 21:10:00,2,49802,0,0.00,0,2,1,2,48018,50000,595,50000,0,0,0,0,0.00,0.00,0.00,0.00
2016-08-04 21:20:00,2,48956,0,0.00,2,2,0,2,43323,50000,2059,50000,0,0,0,0,0.00,0.00,0.00,0.00
2016-08-04 21:30:00,2,49648,0,0.00,0,2,1,2,46485,50000,1054,50000,0,0,0,0,0.00,0.00,0.00,0.00
2016-08-04 21:40:00,2,49065,0,0.00,2,2,0,2,41969,50000,2398,50000,0,0,0,0,0.00,0.00,0.00,0.00
2016-08-04 21:50:00,2,48459,0,0.00,0,2,1,2,42197,50000,2934,50000,0,0,0,0,0.00,0.00,0.00,0.00
2016-08-04 22:00:00,2,48326,0,0.00,2,2,0,2,39566,50000,3132,50000,0,0,0,0,0.00,0.00,0.00,0.00
2016-08-04 22:10:00,2,49446,0,0.00,2,2,0,2,47086,50000,1110,50000,0,0,0,0,0.00,0.00,0.00,0.00
2016-08-04 22:20:00,2,48429,0,0.00,2,2,0,2,40887,50000,2848,50000,0,0,0,0,0.00,0.00,0.00,0.00
2016-08-04 22:30:00,2,46277,0,0.00,2,2,0,2,38351,50000,4237,48328,0,0,0,0,0.00,0.00,0.00,0.00
2016-08-04 22:40:00,2,50000,0,0.00,2,2,0,2,50000,50000,0,50000,0,0,0,0,0.00,0.00,0.00,0.00
2016-08-04 22:50:00,2,48386,0,0.00,2,2,0,2,34819,50000,4527,50000,0,0,0,0,0.00,0.00,0.00,0.00
2016-08-04 23:00:00,2,45659,0,0.00,2,2,0,2,34912,50000,5804,49228,0,0,0,0,0.00,0.00,0.00,0.00
2016-08-04 23:10:00,2,45339,0,0.00,2,2,0,2,36840,50000,4968,46650,0,0,0,0,0.00,0.00,0.00,0.00
2016-08-04 23:20:00,2,41366,0,0.00,2,2,0,2,29166,50000,7375,42709,0,0,0,0,0.00,0.00,0.00,0.00
2016-08-04 23:30:00,2,46027,0,0.00,2,2,0,2,34406,50000,5266,48740,0,0,0,0,0.00,0.00,0.00,0.00
2016-08-04 23:40:00,2,41425,0,0.00,2,2,0,2,30261,50000,6230,41410,0,0,0,0,0.00,0.00,0.00,0.00
2016-08-04 23:50:00,2,39098,0,0.00,0,2,1,2,29304,48631,6679,37592,0,0,0,0,0.00,0.00,0.00,0.00
